Handball Saison 1998/1999

Saison 1998/1999

Quelle : http://www.scharffenberg.com/harchiv/index.php?id=284

Regionalliga Nordost

Staffel Nord

1. HSG Tarp-Wanderup 16 403:355 30:6
2. DHK Flensburg 16 392:342 22:10
3. ATSV Stockelsdorf 16 387:383 22:10
4. Büdelsdorfer TSV 16 384:374 20:12
5. TSV Ellerbek (A) 16 391:365 18:14
6. TSV Alt Duvenstedt 16 357:380 11:21
7. TuS Alstertal 16 322:361 10:22
8. VfL Bad Schwartau II (N) 16 353:375 8:24
9. Hamburger SV (N) 16 382:436 7:25

Staffel Süd

1. USV Cottbus 16 418:350 29:3
2. HC Cottbus 16 393:366 20:12
3. TSV Chemie Premnitz (M) 16 389:384 19:13
4. VfL Lichtenrade 16 355:345 16:16
5. SV Eberswalde 16 396:406 14:18
6. TSV Tempelhof-Mariendorf (N) 16 367:377 14:18
7. TSV Marienfelde 16 337:364 14:18
8. Bad Doberaner SV (N) 16 360:387 9:23
9. Oranienburger HC (N) 16 349:385 9:23

Meisterrunde

1. HSG Tarp-Wanderup 14 372:304 20:8
2. DHK Flensburg 14 332:289 20:8
3. USV Cottbus 14 333:305 20:8
4. HC Cottbus 14 344:344 15:13
5. Büdelsdorfer TSV 14 325:356 12:16
6. ATSV Stockelsdorf 14 320:338 11:17
7. VfL Lichtenrade 14 304:343 8:20
8. TSV Chemie Premnitz 14 303:354 6:22

Abstiegsrunde

1. TSV Ellerbek 18 442:373 27:5
2. VfL Bad Schwartau II 18 375:356 23:9
3. TuS Alstertal 18 350:310 20:12
4. TSV Alt Duvenstedt 18 377:364 20:12
5. SV Eberswalde 18 394:403 18:14
6. Hamburger SV 18 399:406 15:17
7. TSV Marienfelde 18 346:370 11:21
8. Oranienburger HC 18 347:376 10:22
9. TSV Tempelhof-Mariendorf 18 357:401 8:24
10. Bad Doberaner SV 18 353:403 8:24

Die Regionalliga Nordost wird in einer Staffel weitergeführt.

Aufsteiger: SG Ahlbeck-Heringsdorf, SG Niebüll-Süderlügum, SG Preußen/Lichterfelde, SG Wilhelmsburg, VfL Potsdam

Aus der 2.Bundesliga: SG Flensburg-Handewitt II

Back zurück zur Übersicht

Hier könnt ihr uns folgen

RSS
Follow by Email
Facebook
Twitter
Instagram

Archive